Location: Archamps
(46.1365°N, 6.1329°E)
Time: 06:16:42
(UTC+00:00)

Cosmos 1655 Rocket - Pass Details

Date: 28 January 2023
Orbit: 970 x 1006 km, 83.0° (Epoch: 21 March)

Event Time Altitude Azimuth Distance (km) Brightness Sun altitude
Rises 18:01:41 0° 351° (N) 3,708 7.0 -15.2°
Reaches altitude 10° 18:04:13 10° 351° (N) 2,750 6.4 -15.6°
Maximum altitude 18:10:32 86° 264° (W) 986 4.0 -16.7°
Drops below altitude 10° 18:16:45 10° 176° (S) 2,711 6.4 -17.8°
Sets 18:19:14 0° 175° (S) 3,651 7.0 -18.2°
